Live Wetterdaten

Wetterdaten: aktuell Sonntag, 26.01.2014 19:00
Datum Zeit Temp. A. Feuchte A. Luftdruck Regen Wind Richtung Richtung Sonnenschein UV Solar Windchill Windböen
26.01.2014 19:00 -1,2 °C 99 % 1001,4 hPa 0,0 l/m² 0,0 km/h (0 Bft) - - 0 ° 0 min 0,0 UV-I 0 W/m² -1,2 °C 0,0 km/h (0 Bft)
26.01.2014 18:55 -1,2 °C 99 % 1001,6 hPa 0,0 l/m² 0,0 km/h (0 Bft) - - 0 ° 0 min 0,0 UV-I 0 W/m² -1,2 °C 0,0 km/h (0 Bft)
26.01.2014 18:50 -1,2 °C 99 % 1001,7 hPa 0,0 l/m² 0,0 km/h (0 Bft) - - 0 ° 0 min 0,0 UV-I 0 W/m² -1,2 °C 0,0 km/h (0 Bft)
26.01.2014 18:45 -1,2 °C 99 % 1001,9 hPa 0,0 l/m² 0,0 km/h (0 Bft) - - 0 ° 0 min 0,0 UV-I 0 W/m² -1,2 °C 0,0 km/h (0 Bft)
26.01.2014 18:40 -1,1 °C 99 % 1002,0 hPa 0,0 l/m² 0,0 km/h (0 Bft) - - 0 ° 0 min 0,0 UV-I 0 W/m² -1,1 °C 0,0 km/h (0 Bft)
26.01.2014 18:35 -1,1 °C 99 % 1002,1 hPa 0,0 l/m² 0,0 km/h (0 Bft) - - 0 ° 0 min 0,0 UV-I 0 W/m² -1,1 °C 0,0 km/h (0 Bft)
26.01.2014 18:30 -1,1 °C 99 % 1002,3 hPa 0,0 l/m² 0,0 km/h (0 Bft) - - 0 ° 0 min 0,0 UV-I 0 W/m² -1,1 °C 0,0 km/h (0 Bft)
26.01.2014 18:25 -1,1 °C 99 % 1002,5 hPa 0,0 l/m² 0,0 km/h (0 Bft) - - 0 ° 0 min 0,0 UV-I 0 W/m² -1,1 °C 0,0 km/h (0 Bft)
26.01.2014 18:20 -1,1 °C 99 % 1002,8 hPa 0,0 l/m² 0,0 km/h (0 Bft) - - 0 ° 0 min 0,0 UV-I 0 W/m² -1,1 °C 0,0 km/h (0 Bft)
26.01.2014 18:15 -1,1 °C 99 % 1003,0 hPa 0,0 l/m² 0,0 km/h (0 Bft) - - 0 ° 0 min 0,0 UV-I 0 W/m² -1,1 °C 0,0 km/h (0 Bft)
26.01.2014 18:10 -1,1 °C 99 % 1003,1 hPa 0,0 l/m² 0,0 km/h (0 Bft) - - 0 ° 0 min 0,0 UV-I 0 W/m² -1,1 °C 0,0 km/h (0 Bft)
26.01.2014 18:05 -1,1 °C 99 % 1003,4 hPa 0,0 l/m² 0,0 km/h (0 Bft) - - 0 ° 0 min 0,0 UV-I 0 W/m² -1,1 °C 0,0 km/h (0 Bft)
26.01.2014 18:00 -1,1 °C 99 % 1003,6 hPa 0,0 l/m² 0,0 km/h (0 Bft) - - 0 ° 0 min 0,0 UV-I 0 W/m² -1,1 °C 0,0 km/h (0 Bft)
26.01.2014 17:55 -1,1 °C 99 % 1003,7 hPa 0,0 l/m² 0,0 km/h (0 Bft) - - 0 ° 0 min 0,0 UV-I 0 W/m² -1,1 °C 0,0 km/h (0 Bft)
26.01.2014 17:50 -1,0 °C 99 % 1003,7 hPa 0,0 l/m² 0,0 km/h (0 Bft) - - 0 ° 0 min 0,0 UV-I 0 W/m² -1,0 °C 0,0 km/h (0 Bft)
26.01.2014 17:45 -1,0 °C 99 % 1003,8 hPa 0,0 l/m² 0,0 km/h (0 Bft) - - 0 ° 0 min 0,0 UV-I 0 W/m² -1,0 °C 0,0 km/h (0 Bft)
26.01.2014 17:40 -0,9 °C 99 % 1004,0 hPa 0,0 l/m² 0,0 km/h (0 Bft) - - 0 ° 0 min 0,0 UV-I 0 W/m² -0,9 °C 0,0 km/h (0 Bft)
26.01.2014 17:35 -0,9 °C 99 % 1004,1 hPa 0,0 l/m² 0,0 km/h (0 Bft) - - 0 ° 0 min 0,0 UV-I 0 W/m² -0,9 °C 0,0 km/h (0 Bft)
26.01.2014 17:30 -0,9 °C 99 % 1004,3 hPa 0,0 l/m² 0,0 km/h (0 Bft) - - 0 ° 0 min 0,0 UV-I 0 W/m² -0,9 °C 0,0 km/h (0 Bft)
26.01.2014 17:25 -0,9 °C 99 % 1004,4 hPa 0,0 l/m² 0,0 km/h (0 Bft) - - 0 ° 0 min 0,0 UV-I 0 W/m² -0,9 °C 0,0 km/h (0 Bft)
26.01.2014 17:20 -0,9 °C 99 % 1004,4 hPa 0,0 l/m² 0,0 km/h (0 Bft) - - 0 ° 0 min 0,0 UV-I 0 W/m² -0,9 °C 0,0 km/h (0 Bft)
26.01.2014 17:15 -0,9 °C 99 % 1004,5 hPa 0,0 l/m² 0,0 km/h (0 Bft) - - 0 ° 0 min 0,0 UV-I 0 W/m² -0,9 °C 0,0 km/h (0 Bft)
26.01.2014 17:10 -0,9 °C 99 % 1004,4 hPa 0,0 l/m² 0,0 km/h (0 Bft) - - 0 ° 0 min 0,0 UV-I 0 W/m² -0,9 °C 0,0 km/h (0 Bft)
26.01.2014 17:05 -0,9 °C 99 % 1004,6 hPa 0,0 l/m² 0,0 km/h (0 Bft) - - 0 ° 0 min 0,0 UV-I 0 W/m² -0,9 °C 0,0 km/h (0 Bft)
26.01.2014 17:00 -0,8 °C 99 % 1004,6 hPa 0,0 l/m² 0,0 km/h (0 Bft) - - 0 ° 0 min 0,0 UV-I 0 W/m² -0,8 °C 0,0 km/h (0 Bft)
26.01.2014 16:55 -0,8 °C 99 % 1004,5 hPa 0,0 l/m² 0,0 km/h (0 Bft) - - 0 ° 0 min 0,0 UV-I 0 W/m² -0,8 °C 0,0 km/h (0 Bft)
26.01.2014 16:50 -0,8 °C 99 % 1004,7 hPa 0,0 l/m² 0,0 km/h (0 Bft) - - 0 ° 0 min 0,0 UV-I 0 W/m² -0,8 °C 0,0 km/h (0 Bft)
26.01.2014 16:45 -0,8 °C 99 % 1004,8 hPa 0,0 l/m² 0,0 km/h (0 Bft) - - 0 ° 0 min 0,0 UV-I 0 W/m² -0,8 °C 0,0 km/h (0 Bft)
26.01.2014 16:40 -0,8 °C 99 % 1005,0 hPa 0,0 l/m² 0,0 km/h (0 Bft) - - 0 ° 0 min 0,0 UV-I 0 W/m² -0,8 °C 0,0 km/h (0 Bft)
26.01.2014 16:35 -0,8 °C 99 % 1005,0 hPa 0,0 l/m² 0,0 km/h (0 Bft) - - 0 ° 0 min 0,0 UV-I 0 W/m² -0,8 °C 0,0 km/h (0 Bft)
26.01.2014 16:30 -0,8 °C 99 % 1005,0 hPa 0,0 l/m² 0,0 km/h (0 Bft) - - 0 ° 0 min 0,0 UV-I 0 W/m² -0,8 °C 0,0 km/h (0 Bft)
26.01.2014 16:25 -0,8 °C 99 % 1005,1 hPa 0,0 l/m² 0,0 km/h (0 Bft) - - 0 ° 0 min 0,0 UV-I 0 W/m² -0,8 °C 0,0 km/h (0 Bft)
26.01.2014 16:20 -0,9 °C 99 % 1005,1 hPa 0,0 l/m² 0,0 km/h (0 Bft) - - 0 ° 0 min 0,0 UV-I 0 W/m² -0,9 °C 0,0 km/h (0 Bft)
26.01.2014 16:15 -0,9 °C 99 % 1005,3 hPa 0,0 l/m² 0,0 km/h (0 Bft) - - 0 ° 0 min 0,0 UV-I 5 W/m² -0,9 °C 0,0 km/h (0 Bft)
26.01.2014 16:10 -0,9 °C 99 % 1005,3 hPa 0,0 l/m² 0,0 km/h (0 Bft) - - 0 ° 0 min 0,0 UV-I 5 W/m² -0,9 °C 0,0 km/h (0 Bft)
26.01.2014 16:05 -0,8 °C 99 % 1005,5 hPa 0,0 l/m² 0,0 km/h (0 Bft) - - 0 ° 0 min 0,0 UV-I 7 W/m² -0,8 °C 0,0 km/h (0 Bft)
26.01.2014 16:00 -0,8 °C 99 % 1005,6 hPa 0,0 l/m² 0,0 km/h (0 Bft) - - 0 ° 0 min 0,0 UV-I 7 W/m² -0,8 °C 0,0 km/h (0 Bft)
26.01.2014 15:55 -0,7 °C 99 % 1005,7 hPa 0,0 l/m² 0,0 km/h (0 Bft) - - 0 ° 0 min 0,0 UV-I 7 W/m² -0,7 °C 0,0 km/h (0 Bft)
26.01.2014 15:50 -0,6 °C 99 % 1005,9 hPa 0,0 l/m² 0,0 km/h (0 Bft) - - 0 ° 0 min 0,0 UV-I 7 W/m² -0,6 °C 0,0 km/h (0 Bft)
26.01.2014 15:45 -0,4 °C 99 % 1005,7 hPa 0,0 l/m² 0,0 km/h (0 Bft) - - 0 ° 0 min 0,0 UV-I 7 W/m² -0,4 °C 0,0 km/h (0 Bft)
26.01.2014 15:40 -0,4 °C 99 % 1005,9 hPa 0,0 l/m² 0,0 km/h (0 Bft) - - 0 ° 0 min 0,0 UV-I 5 W/m² -0,4 °C 0,0 km/h (0 Bft)
26.01.2014 15:35 -0,4 °C 99 % 1006,0 hPa 0,0 l/m² 0,0 km/h (0 Bft) - - 0 ° 0 min 0,0 UV-I 7 W/m² -0,4 °C 0,0 km/h (0 Bft)
26.01.2014 15:30 -0,4 °C 99 % 1006,2 hPa 0,0 l/m² 0,0 km/h (0 Bft) - - 0 ° 0 min 0,0 UV-I 7 W/m² -0,4 °C 0,0 km/h (0 Bft)
26.01.2014 15:25 -0,4 °C 99 % 1006,2 hPa 0,0 l/m² 0,0 km/h (0 Bft) - - 0 ° 0 min 0,0 UV-I 7 W/m² -0,4 °C 0,0 km/h (0 Bft)
26.01.2014 15:20 -0,4 °C 99 % 1006,2 hPa 0,0 l/m² 0,0 km/h (0 Bft) - - 0 ° 0 min 0,0 UV-I 5 W/m² -0,4 °C 0,0 km/h (0 Bft)
26.01.2014 15:15 -0,4 °C 99 % 1006,2 hPa 0,0 l/m² 0,0 km/h (0 Bft) - - 0 ° 0 min 0,0 UV-I 7 W/m² -0,4 °C 0,0 km/h (0 Bft)
26.01.2014 15:10 -0,4 °C 99 % 1006,3 hPa 0,0 l/m² 0,0 km/h (0 Bft) - - 0 ° 0 min 0,0 UV-I 7 W/m² -0,4 °C 0,0 km/h (0 Bft)
26.01.2014 15:05 -0,4 °C 99 % 1006,3 hPa 0,0 l/m² 0,0 km/h (0 Bft) - - 0 ° 0 min 0,0 UV-I 11 W/m² -0,4 °C 0,0 km/h (0 Bft)
26.01.2014 15:00 -0,4 °C 99 % 1006,4 hPa 0,0 l/m² 0,0 km/h (0 Bft) - - 0 ° 0 min 0,0 UV-I 11 W/m² -0,4 °C 0,0 km/h (0 Bft)
26.01.2014 14:55 -0,4 °C 99 % 1006,5 hPa 0,0 l/m² 0,0 km/h (0 Bft) - - 0 ° 0 min 0,0 UV-I 12 W/m² -0,4 °C 0,0 km/h (0 Bft)
26.01.2014 14:50 -0,4 °C 99 % 1006,6 hPa 0,0 l/m² 0,0 km/h (0 Bft) - - 0 ° 0 min 0,0 UV-I 11 W/m² -0,4 °C 0,0 km/h (0 Bft)
26.01.2014 14:45 -0,3 °C 99 % 1006,7 hPa 0,0 l/m² 0,0 km/h (0 Bft) - - 0 ° 0 min 0,0 UV-I 7 W/m² -0,3 °C 0,0 km/h (0 Bft)
26.01.2014 14:40 -0,3 °C 99 % 1006,8 hPa 0,0 l/m² 0,0 km/h (0 Bft) - - 0 ° 0 min 0,0 UV-I 7 W/m² -0,3 °C 0,0 km/h (0 Bft)
26.01.2014 14:35 -0,2 °C 99 % 1006,9 hPa 0,0 l/m² 0,0 km/h (0 Bft) - - 0 ° 0 min 0,0 UV-I 7 W/m² -0,2 °C 0,0 km/h (0 Bft)
26.01.2014 14:30 -0,2 °C 99 % 1006,9 hPa 0,0 l/m² 0,0 km/h (0 Bft) - - 0 ° 0 min 0,0 UV-I 7 W/m² -0,2 °C 0,0 km/h (0 Bft)
26.01.2014 14:25 -0,2 °C 99 % 1006,8 hPa 0,0 l/m² 0,0 km/h (0 Bft) - - 0 ° 0 min 0,0 UV-I 9 W/m² -0,2 °C 0,0 km/h (0 Bft)
26.01.2014 14:20 -0,2 °C 99 % 1007,0 hPa 0,0 l/m² 0,0 km/h (0 Bft) - - 0 ° 0 min 0,0 UV-I 14 W/m² -0,2 °C 0,0 km/h (0 Bft)
26.01.2014 14:15 -0,2 °C 99 % 1007,1 hPa 0,0 l/m² 0,0 km/h (0 Bft) - - 0 ° 0 min 0,0 UV-I 16 W/m² -0,2 °C 0,0 km/h (0 Bft)
26.01.2014 14:10 -0,2 °C 99 % 1007,1 hPa 0,0 l/m² 0,0 km/h (0 Bft) - - 0 ° 0 min 0,0 UV-I 18 W/m² -0,2 °C 0,0 km/h (0 Bft)
26.01.2014 14:05 -0,2 °C 99 % 1007,1 hPa 0,0 l/m² 0,0 km/h (0 Bft) - - 0 ° 0 min 0,0 UV-I 23 W/m² -0,2 °C 0,0 km/h (0 Bft)
26.01.2014 14:00 -0,2 °C 99 % 1007,2 hPa 0,0 l/m² 0,0 km/h (0 Bft) - - 0 ° 0 min 0,0 UV-I 18 W/m² -0,2 °C 0,0 km/h (0 Bft)
26.01.2014 13:55 -0,2 °C 99 % 1007,2 hPa 0,0 l/m² 0,0 km/h (0 Bft) - - 0 ° 0 min 0,0 UV-I 26 W/m² -0,2 °C 0,0 km/h (0 Bft)
26.01.2014 13:50 -0,3 °C 99 % 1007,5 hPa 0,0 l/m² 0,0 km/h (0 Bft) - - 0 ° 0 min 0,0 UV-I 25 W/m² -0,3 °C 0,0 km/h (0 Bft)
26.01.2014 13:45 -0,2 °C 99 % 1007,5 hPa 0,0 l/m² 0,0 km/h (0 Bft) - - 0 ° 0 min 0,0 UV-I 19 W/m² -0,2 °C 0,0 km/h (0 Bft)
26.01.2014 13:40 -0,2 °C 99 % 1007,4 hPa 0,0 l/m² 0,0 km/h (0 Bft) - - 0 ° 0 min 0,0 UV-I 18 W/m² -0,2 °C 0,0 km/h (0 Bft)
26.01.2014 13:35 -0,1 °C 99 % 1007,7 hPa 0,0 l/m² 0,0 km/h (0 Bft) - - 0 ° 0 min 0,0 UV-I 19 W/m² -0,1 °C 0,0 km/h (0 Bft)
26.01.2014 13:30 -0,2 °C 99 % 1007,8 hPa 0,0 l/m² 0,0 km/h (0 Bft) - - 0 ° 0 min 0,0 UV-I 12 W/m² -0,2 °C 0,0 km/h (0 Bft)
26.01.2014 13:25 -0,1 °C 99 % 1007,9 hPa 0,0 l/m² 0,0 km/h (0 Bft) - - 0 ° 0 min 0,0 UV-I 12 W/m² -0,1 °C 0,0 km/h (0 Bft)
26.01.2014 13:20 -0,2 °C 99 % 1008,0 hPa 0,0 l/m² 0,0 km/h (0 Bft) - - 0 ° 0 min 0,0 UV-I 11 W/m² -0,2 °C 0,0 km/h (0 Bft)
26.01.2014 13:15 -0,2 °C 99 % 1008,0 hPa 0,0 l/m² 0,0 km/h (0 Bft) - - 0 ° 0 min 0,0 UV-I 11 W/m² -0,2 °C 0,0 km/h (0 Bft)
26.01.2014 13:10 -0,1 °C 99 % 1008,1 hPa 0,0 l/m² 0,0 km/h (0 Bft) - - 0 ° 0 min 0,0 UV-I 11 W/m² -0,1 °C 0,0 km/h (0 Bft)
26.01.2014 13:05 -0,1 °C 99 % 1008,0 hPa 0,0 l/m² 0,0 km/h (0 Bft) - - 0 ° 0 min 0,0 UV-I 9 W/m² -0,1 °C 0,0 km/h (0 Bft)
26.01.2014 13:00 -0,2 °C 99 % 1007,9 hPa 0,0 l/m² 0,0 km/h (0 Bft) - - 0 ° 0 min 0,0 UV-I 11 W/m² -0,2 °C 0,0 km/h (0 Bft)
26.01.2014 12:55 -0,2 °C 99 % 1008,0 hPa 0,0 l/m² 0,0 km/h (0 Bft) - - 0 ° 0 min 0,0 UV-I 9 W/m² -0,2 °C 0,0 km/h (0 Bft)
26.01.2014 12:50 -0,2 °C 99 % 1008,2 hPa 0,0 l/m² 0,0 km/h (0 Bft) - - 0 ° 0 min 0,0 UV-I 7 W/m² -0,2 °C 0,0 km/h (0 Bft)
26.01.2014 12:45 -0,2 °C 99 % 1008,1 hPa 0,0 l/m² 0,0 km/h (0 Bft) - - 0 ° 0 min 0,0 UV-I 7 W/m² -0,2 °C 0,0 km/h (0 Bft)
26.01.2014 12:40 -0,2 °C 99 % 1008,3 hPa 0,0 l/m² 0,0 km/h (0 Bft) - - 0 ° 0 min 0,0 UV-I 9 W/m² -0,2 °C 0,0 km/h (0 Bft)
26.01.2014 12:35 -0,2 °C 99 % 1008,5 hPa 0,0 l/m² 0,0 km/h (0 Bft) - - 0 ° 0 min 0,0 UV-I 9 W/m² -0,2 °C 0,0 km/h (0 Bft)
26.01.2014 12:30 -0,2 °C 99 % 1008,5 hPa 0,0 l/m² 0,0 km/h (0 Bft) - - 0 ° 0 min 0,0 UV-I 9 W/m² -0,2 °C 0,0 km/h (0 Bft)
26.01.2014 12:25 -0,2 °C 99 % 1008,5 hPa 0,0 l/m² 0,0 km/h (0 Bft) - - 0 ° 0 min 0,0 UV-I 12 W/m² -0,2 °C 0,0 km/h (0 Bft)
26.01.2014 12:20 -0,2 °C 99 % 1008,6 hPa 0,0 l/m² 0,0 km/h (0 Bft) - - 0 ° 0 min 0,0 UV-I 9 W/m² -0,2 °C 0,0 km/h (0 Bft)
26.01.2014 12:15 -0,2 °C 99 % 1008,6 hPa 0,0 l/m² 0,0 km/h (0 Bft) - - 0 ° 0 min 0,0 UV-I 16 W/m² -0,2 °C 0,0 km/h (0 Bft)
26.01.2014 12:10 -0,2 °C 99 % 1008,6 hPa 0,0 l/m² 0,0 km/h (0 Bft) - - 0 ° 0 min 0,0 UV-I 16 W/m² -0,2 °C 0,0 km/h (0 Bft)
26.01.2014 12:05 -0,2 °C 99 % 1008,6 hPa 0,0 l/m² 0,0 km/h (0 Bft) - - 0 ° 0 min 0,0 UV-I 12 W/m² -0,2 °C 0,0 km/h (0 Bft)
26.01.2014 12:00 -0,2 °C 99 % 1008,7 hPa 0,0 l/m² 0,0 km/h (0 Bft) - - 0 ° 0 min 0,0 UV-I 11 W/m² -0,2 °C 0,0 km/h (0 Bft)
26.01.2014 11:55 -0,1 °C 99 % 1008,8 hPa 0,0 l/m² 0,0 km/h (0 Bft) - - 0 ° 0 min 0,0 UV-I 7 W/m² -0,1 °C 0,0 km/h (0 Bft)
26.01.2014 11:50 -0,1 °C 99 % 1008,8 hPa 0,0 l/m² 0,0 km/h (0 Bft) - - 0 ° 0 min 0,0 UV-I 9 W/m² -0,1 °C 0,0 km/h (0 Bft)
26.01.2014 11:45 -0,1 °C 99 % 1008,8 hPa 0,2 l/m² 0,0 km/h (0 Bft) - - 0 ° 0 min 0,0 UV-I 9 W/m² -0,1 °C 0,0 km/h (0 Bft)
26.01.2014 11:40 -0,1 °C 99 % 1008,7 hPa 0,0 l/m² 0,0 km/h (0 Bft) - - 0 ° 0 min 0,0 UV-I 9 W/m² -0,1 °C 0,0 km/h (0 Bft)
26.01.2014 11:35 -0,1 °C 99 % 1008,8 hPa 0,2 l/m² 0,0 km/h (0 Bft) - - 0 ° 0 min 0,0 UV-I 9 W/m² -0,1 °C 0,0 km/h (0 Bft)
26.01.2014 11:30 -0,1 °C 99 % 1008,8 hPa 0,0 l/m² 0,0 km/h (0 Bft) - - 0 ° 0 min 0,0 UV-I 9 W/m² -0,1 °C 0,0 km/h (0 Bft)
26.01.2014 11:25 -0,1 °C 99 % 1009,0 hPa 0,0 l/m² 0,0 km/h (0 Bft) - - 0 ° 0 min 0,0 UV-I 9 W/m² -0,1 °C 0,0 km/h (0 Bft)
26.01.2014 11:20 -0,1 °C 99 % 1009,1 hPa 0,2 l/m² 0,0 km/h (0 Bft) - - 0 ° 0 min 0,0 UV-I 7 W/m² -0,1 °C 0,0 km/h (0 Bft)
26.01.2014 11:15 0,0 °C 99 % 1009,1 hPa 0,0 l/m² 0,0 km/h (0 Bft) - - 0 ° 0 min 0,0 UV-I 9 W/m² 0,0 °C 0,0 km/h (0 Bft)
26.01.2014 11:10 0,0 °C 99 % 1009,1 hPa 0,0 l/m² 0,0 km/h (0 Bft) - - 0 ° 0 min 0,0 UV-I 9 W/m² 0,0 °C 0,0 km/h (0 Bft)
26.01.2014 11:05 0,0 °C 99 % 1009,1 hPa 0,0 l/m² 0,0 km/h (0 Bft) - - 0 ° 0 min 0,0 UV-I 7 W/m² 0,0 °C 0,0 km/h (0 Bft)
26.01.2014 11:00 0,0 °C 99 % 1009,0 hPa 0,0 l/m² 0,0 km/h (0 Bft) - - 0 ° 0 min 0,0 UV-I 9 W/m² 0,0 °C 0,0 km/h (0 Bft)
26.01.2014 10:55 0,0 °C 99 % 1009,0 hPa 0,0 l/m² 0,0 km/h (0 Bft) - - 0 ° 0 min 0,0 UV-I 11 W/m² 0,0 °C 0,0 km/h (0 Bft)
26.01.2014 10:50 0,0 °C 99 % 1009,0 hPa 0,0 l/m² 0,0 km/h (0 Bft) - - 0 ° 0 min 0,0 UV-I 9 W/m² 0,0 °C 0,0 km/h (0 Bft)
26.01.2014 10:45 0,0 °C 99 % 1008,9 hPa 0,2 l/m² 0,0 km/h (0 Bft) - - 0 ° 0 min 0,0 UV-I 9 W/m² 0,0 °C 0,0 km/h (0 Bft)
26.01.2014 10:40 -0,1 °C 99 % 1009,0 hPa 0,0 l/m² 0,0 km/h (0 Bft) - - 0 ° 0 min 0,0 UV-I 7 W/m² -0,1 °C 0,0 km/h (0 Bft)
26.01.2014 10:35 -0,1 °C 99 % 1009,1 hPa 0,0 l/m² 0,0 km/h (0 Bft) - - 0 ° 0 min 0,0 UV-I 7 W/m² -0,1 °C 0,0 km/h (0 Bft)
26.01.2014 10:30 -0,1 °C 99 % 1009,0 hPa 0,2 l/m² 0,0 km/h (0 Bft) - - 0 ° 0 min 0,0 UV-I 7 W/m² -0,1 °C 0,0 km/h (0 Bft)
26.01.2014 10:25 -0,1 °C 99 % 1009,0 hPa 0,0 l/m² 0,0 km/h (0 Bft) - - 0 ° 0 min 0,0 UV-I 7 W/m² -0,1 °C 0,0 km/h (0 Bft)
26.01.2014 10:20 -0,2 °C 99 % 1008,9 hPa 0,2 l/m² 0,0 km/h (0 Bft) - - 0 ° 0 min 0,0 UV-I 7 W/m² -0,2 °C 0,0 km/h (0 Bft)
26.01.2014 10:15 -0,2 °C 99 % 1008,9 hPa 0,0 l/m² 0,0 km/h (0 Bft) - - 0 ° 0 min 0,0 UV-I 9 W/m² -0,2 °C 0,0 km/h (0 Bft)
26.01.2014 10:10 -0,2 °C 99 % 1008,8 hPa 0,0 l/m² 0,0 km/h (0 Bft) - - 0 ° 0 min 0,0 UV-I 11 W/m² -0,2 °C 0,0 km/h (0 Bft)
26.01.2014 10:05 -0,3 °C 99 % 1008,7 hPa 0,0 l/m² 0,0 km/h (0 Bft) - - 0 ° 0 min 0,0 UV-I 11 W/m² -0,3 °C 0,0 km/h (0 Bft)
26.01.2014 10:00 -0,4 °C 99 % 1008,8 hPa 0,2 l/m² 0,0 km/h (0 Bft) - - 0 ° 0 min 0,0 UV-I 7 W/m² -0,4 °C 0,0 km/h (0 Bft)
26.01.2014 09:55 -0,4 °C 99 % 1008,9 hPa 0,0 l/m² 0,0 km/h (0 Bft) - - 0 ° 0 min 0,0 UV-I 7 W/m² -0,4 °C 0,0 km/h (0 Bft)
26.01.2014 09:50 -0,5 °C 99 % 1009,0 hPa 0,0 l/m² 0,0 km/h (0 Bft) - - 0 ° 0 min 0,0 UV-I 7 W/m² -0,5 °C 0,0 km/h (0 Bft)
26.01.2014 09:45 -0,6 °C 99 % 1009,0 hPa 0,0 l/m² 0,0 km/h (0 Bft) - - 0 ° 0 min 0,0 UV-I 5 W/m² -0,6 °C 0,0 km/h (0 Bft)
26.01.2014 09:40 -0,6 °C 99 % 1009,1 hPa 0,0 l/m² 0,0 km/h (0 Bft) - - 0 ° 0 min 0,0 UV-I 5 W/m² -0,6 °C 0,0 km/h (0 Bft)
26.01.2014 09:35 -0,7 °C 99 % 1009,1 hPa 0,0 l/m² 0,0 km/h (0 Bft) - - 0 ° 0 min 0,0 UV-I 5 W/m² -0,7 °C 0,0 km/h (0 Bft)
26.01.2014 09:30 -0,8 °C 99 % 1009,1 hPa 0,2 l/m² 0,0 km/h (0 Bft) - - 0 ° 0 min 0,0 UV-I 5 W/m² -0,8 °C 0,0 km/h (0 Bft)
26.01.2014 09:25 -0,8 °C 99 % 1009,1 hPa 0,0 l/m² 0,0 km/h (0 Bft) - - 0 ° 0 min 0,0 UV-I 5 W/m² -0,8 °C 0,0 km/h (0 Bft)
26.01.2014 09:20 -0,8 °C 99 % 1009,1 hPa 0,0 l/m² 0,0 km/h (0 Bft) - - 0 ° 0 min 0,0 UV-I 5 W/m² -0,8 °C 0,0 km/h (0 Bft)
26.01.2014 09:15 -0,8 °C 99 % 1009,0 hPa 0,0 l/m² 0,0 km/h (0 Bft) - - 0 ° 0 min 0,0 UV-I 5 W/m² -0,8 °C 0,0 km/h (0 Bft)
26.01.2014 09:10 -0,9 °C 99 % 1009,0 hPa 0,0 l/m² 0,0 km/h (0 Bft) - - 0 ° 0 min 0,0 UV-I 0 W/m² -0,9 °C 0,0 km/h (0 Bft)
26.01.2014 09:05 -0,9 °C 99 % 1009,0 hPa 0,0 l/m² 0,0 km/h (0 Bft) - - 0 ° 0 min 0,0 UV-I 0 W/m² -0,9 °C 0,0 km/h (0 Bft)
26.01.2014 09:00 -0,9 °C 99 % 1009,0 hPa 0,0 l/m² 0,0 km/h (0 Bft) - - 0 ° 0 min 0,0 UV-I 0 W/m² -0,9 °C 0,0 km/h (0 Bft)
26.01.2014 08:55 -0,9 °C 99 % 1009,0 hPa 0,0 l/m² 0,0 km/h (0 Bft) - - 0 ° 0 min 0,0 UV-I 0 W/m² -0,9 °C 0,0 km/h (0 Bft)
26.01.2014 08:50 -0,9 °C 99 % 1009,0 hPa 0,2 l/m² 0,0 km/h (0 Bft) - - 0 ° 0 min 0,0 UV-I 0 W/m² -0,9 °C 0,0 km/h (0 Bft)
26.01.2014 08:45 -0,9 °C 99 % 1009,0 hPa 0,0 l/m² 0,0 km/h (0 Bft) - - 0 ° 0 min 0,0 UV-I 0 W/m² -0,9 °C 0,0 km/h (0 Bft)
26.01.2014 08:40 -0,9 °C 99 % 1009,0 hPa 0,0 l/m² 0,0 km/h (0 Bft) - - 0 ° 0 min 0,0 UV-I 0 W/m² -0,9 °C 0,0 km/h (0 Bft)
26.01.2014 08:35 -0,9 °C 99 % 1008,9 hPa 0,0 l/m² 0,0 km/h (0 Bft) - - 0 ° 0 min 0,0 UV-I 0 W/m² -0,9 °C 0,0 km/h (0 Bft)
26.01.2014 08:30 -0,9 °C 99 % 1008,9 hPa 0,0 l/m² 0,0 km/h (0 Bft) - - 0 ° 0 min 0,0 UV-I 0 W/m² -0,9 °C 0,0 km/h (0 Bft)
26.01.2014 08:25 -0,9 °C 99 % 1008,8 hPa 0,0 l/m² 0,0 km/h (0 Bft) - - 0 ° 0 min 0,0 UV-I 0 W/m² -0,9 °C 0,0 km/h (0 Bft)
26.01.2014 08:20 -0,9 °C 99 % 1008,8 hPa 0,0 l/m² 0,0 km/h (0 Bft) - - 0 ° 0 min 0,0 UV-I 0 W/m² -0,9 °C 0,0 km/h (0 Bft)
26.01.2014 08:15 -0,9 °C 99 % 1008,7 hPa 0,2 l/m² 0,0 km/h (0 Bft) - - 0 ° 0 min 0,0 UV-I 0 W/m² -0,9 °C 0,0 km/h (0 Bft)
26.01.2014 08:10 -0,9 °C 99 % 1008,8 hPa 0,0 l/m² 0,0 km/h (0 Bft) - - 0 ° 0 min 0,0 UV-I 0 W/m² -0,9 °C 0,0 km/h (0 Bft)
26.01.2014 08:05 -0,9 °C 99 % 1008,6 hPa 0,0 l/m² 0,0 km/h (0 Bft) - - 0 ° 0 min 0,0 UV-I 0 W/m² -0,9 °C 0,0 km/h (0 Bft)
26.01.2014 08:00 -0,9 °C 99 % 1008,5 hPa 0,0 l/m² 0,0 km/h (0 Bft) - - 0 ° 0 min 0,0 UV-I 0 W/m² -0,9 °C 0,0 km/h (0 Bft)
26.01.2014 07:55 -0,9 °C 99 % 1008,5 hPa 0,0 l/m² 0,0 km/h (0 Bft) - - 0 ° 0 min 0,0 UV-I 0 W/m² -0,9 °C 0,0 km/h (0 Bft)
26.01.2014 07:50 -1,0 °C 99 % 1008,5 hPa 0,0 l/m² 0,0 km/h (0 Bft) - - 0 ° 0 min 0,0 UV-I 0 W/m² -1,0 °C 0,0 km/h (0 Bft)
26.01.2014 07:45 -1,0 °C 99 % 1008,4 hPa 0,0 l/m² 0,0 km/h (0 Bft) - - 0 ° 0 min 0,0 UV-I 0 W/m² -1,0 °C 0,0 km/h (0 Bft)
26.01.2014 07:40 -1,0 °C 99 % 1008,4 hPa 0,0 l/m² 0,0 km/h (0 Bft) - - 0 ° 0 min 0,0 UV-I 0 W/m² -1,0 °C 0,0 km/h (0 Bft)
26.01.2014 07:35 -1,1 °C 99 % 1008,4 hPa 0,0 l/m² 0,0 km/h (0 Bft) - - 0 ° 0 min 0,0 UV-I 0 W/m² -1,1 °C 0,0 km/h (0 Bft)
26.01.2014 07:30 -1,0 °C 99 % 1008,4 hPa 0,2 l/m² 0,0 km/h (0 Bft) - - 0 ° 0 min 0,0 UV-I 0 W/m² -1,0 °C 0,0 km/h (0 Bft)
26.01.2014 07:25 -1,0 °C 99 % 1008,3 hPa 0,0 l/m² 0,0 km/h (0 Bft) - - 0 ° 0 min 0,0 UV-I 0 W/m² -1,0 °C 0,0 km/h (0 Bft)
26.01.2014 07:20 -1,0 °C 99 % 1008,4 hPa 0,0 l/m² 0,0 km/h (0 Bft) - - 0 ° 0 min 0,0 UV-I 0 W/m² -1,0 °C 0,0 km/h (0 Bft)
26.01.2014 07:15 -1,0 °C 99 % 1008,3 hPa 0,0 l/m² 0,0 km/h (0 Bft) - - 0 ° 0 min 0,0 UV-I 0 W/m² -1,0 °C 0,0 km/h (0 Bft)
26.01.2014 07:10 -1,0 °C 99 % 1008,3 hPa 0,0 l/m² 0,0 km/h (0 Bft) - - 0 ° 0 min 0,0 UV-I 0 W/m² -1,0 °C 0,0 km/h (0 Bft)
26.01.2014 07:05 -1,0 °C 99 % 1008,1 hPa 0,0 l/m² 0,0 km/h (0 Bft) - - 0 ° 0 min 0,0 UV-I 0 W/m² -1,0 °C 0,0 km/h (0 Bft)
26.01.2014 07:00 -1,0 °C 99 % 1008,1 hPa 0,0 l/m² 0,0 km/h (0 Bft) - - 0 ° 0 min 0,0 UV-I 0 W/m² -1,0 °C 0,0 km/h (0 Bft)
26.01.2014 06:55 -1,0 °C 99 % 1007,9 hPa 0,2 l/m² 0,0 km/h (0 Bft) - - 0 ° 0 min 0,0 UV-I 0 W/m² -1,0 °C 0,0 km/h (0 Bft)
26.01.2014 06:50 -1,0 °C 99 % 1007,8 hPa 0,0 l/m² 0,0 km/h (0 Bft) - - 0 ° 0 min 0,0 UV-I 0 W/m² -1,0 °C 0,0 km/h (0 Bft)
26.01.2014 06:45 -1,0 °C 99 % 1007,7 hPa 0,0 l/m² 0,0 km/h (0 Bft) - - 0 ° 0 min 0,0 UV-I 0 W/m² -1,0 °C 0,0 km/h (0 Bft)
26.01.2014 06:40 -1,0 °C 99 % 1007,6 hPa 0,0 l/m² 0,0 km/h (0 Bft) - - 0 ° 0 min 0,0 UV-I 0 W/m² -1,0 °C 0,0 km/h (0 Bft)
26.01.2014 06:35 -0,9 °C 99 % 1007,6 hPa 0,0 l/m² 0,0 km/h (0 Bft) - - 0 ° 0 min 0,0 UV-I 0 W/m² -0,9 °C 0,0 km/h (0 Bft)
26.01.2014 06:30 -0,9 °C 99 % 1007,5 hPa 0,0 l/m² 0,0 km/h (0 Bft) - - 0 ° 0 min 0,0 UV-I 0 W/m² -0,9 °C 0,0 km/h (0 Bft)
26.01.2014 06:25 -0,9 °C 99 % 1007,3 hPa 0,2 l/m² 0,0 km/h (0 Bft) - - 0 ° 0 min 0,0 UV-I 0 W/m² -0,9 °C 0,0 km/h (0 Bft)
26.01.2014 06:20 -0,9 °C 99 % 1007,2 hPa 0,0 l/m² 0,0 km/h (0 Bft) - - 0 ° 0 min 0,0 UV-I 0 W/m² -0,9 °C 0,0 km/h (0 Bft)
26.01.2014 06:15 -0,8 °C 99 % 1007,2 hPa 0,0 l/m² 0,0 km/h (0 Bft) - - 0 ° 0 min 0,0 UV-I 0 W/m² -0,8 °C 0,0 km/h (0 Bft)
26.01.2014 06:10 -0,8 °C 99 % 1007,2 hPa 0,0 l/m² 0,0 km/h (0 Bft) - - 0 ° 0 min 0,0 UV-I 0 W/m² -0,8 °C 0,0 km/h (0 Bft)
26.01.2014 06:05 -0,8 °C 99 % 1007,1 hPa 0,2 l/m² 0,0 km/h (0 Bft) - - 0 ° 0 min 0,0 UV-I 0 W/m² -0,8 °C 0,0 km/h (0 Bft)
26.01.2014 06:00 -0,8 °C 99 % 1006,9 hPa 0,0 l/m² 0,0 km/h (0 Bft) - - 0 ° 0 min 0,0 UV-I 0 W/m² -0,8 °C 0,0 km/h (0 Bft)
26.01.2014 05:55 -0,7 °C 99 % 1006,9 hPa 0,0 l/m² 0,0 km/h (0 Bft) - - 0 ° 0 min 0,0 UV-I 0 W/m² -0,7 °C 0,0 km/h (0 Bft)
26.01.2014 05:50 -0,7 °C 99 % 1006,7 hPa 0,0 l/m² 0,0 km/h (0 Bft) - - 0 ° 0 min 0,0 UV-I 0 W/m² -0,7 °C 0,0 km/h (0 Bft)
26.01.2014 05:45 -0,7 °C 99 % 1006,6 hPa 0,2 l/m² 0,0 km/h (0 Bft) - - 0 ° 0 min 0,0 UV-I 0 W/m² -0,7 °C 0,0 km/h (0 Bft)
26.01.2014 05:40 -0,7 °C 99 % 1006,5 hPa 0,0 l/m² 0,0 km/h (0 Bft) - - 0 ° 0 min 0,0 UV-I 0 W/m² -0,7 °C 0,0 km/h (0 Bft)
26.01.2014 05:35 -0,7 °C 99 % 1006,5 hPa 0,0 l/m² 0,0 km/h (0 Bft) - - 0 ° 0 min 0,0 UV-I 0 W/m² -0,7 °C 0,0 km/h (0 Bft)
26.01.2014 05:30 -0,7 °C 99 % 1006,3 hPa 0,2 l/m² 0,0 km/h (0 Bft) - - 0 ° 0 min 0,0 UV-I 0 W/m² -0,7 °C 0,0 km/h (0 Bft)
26.01.2014 05:25 -0,7 °C 99 % 1006,2 hPa 0,0 l/m² 0,0 km/h (0 Bft) - - 0 ° 0 min 0,0 UV-I 0 W/m² -0,7 °C 0,0 km/h (0 Bft)
26.01.2014 05:20 -0,7 °C 99 % 1006,1 hPa 0,0 l/m² 0,0 km/h (0 Bft) - - 0 ° 0 min 0,0 UV-I 0 W/m² -0,7 °C 0,0 km/h (0 Bft)
26.01.2014 05:15 -0,7 °C 99 % 1005,9 hPa 0,0 l/m² 0,0 km/h (0 Bft) - - 0 ° 0 min 0,0 UV-I 0 W/m² -0,7 °C 0,0 km/h (0 Bft)
26.01.2014 05:10 -0,7 °C 99 % 1005,7 hPa 0,0 l/m² 0,0 km/h (0 Bft) - - 0 ° 0 min 0,0 UV-I 0 W/m² -0,7 °C 0,0 km/h (0 Bft)
26.01.2014 05:05 -0,6 °C 99 % 1005,6 hPa 0,2 l/m² 0,0 km/h (0 Bft) - - 0 ° 0 min 0,0 UV-I 0 W/m² -0,6 °C 0,0 km/h (0 Bft)
26.01.2014 05:00 -0,7 °C 99 % 1005,5 hPa 0,0 l/m² 0,0 km/h (0 Bft) - - 0 ° 0 min 0,0 UV-I 0 W/m² -0,7 °C 0,0 km/h (0 Bft)
26.01.2014 04:55 -0,7 °C 99 % 1005,4 hPa 0,0 l/m² 0,0 km/h (0 Bft) - - 0 ° 0 min 0,0 UV-I 0 W/m² -0,7 °C 0,0 km/h (0 Bft)
26.01.2014 04:50 -0,6 °C 99 % 1005,4 hPa 0,0 l/m² 0,0 km/h (0 Bft) - - 0 ° 0 min 0,0 UV-I 0 W/m² -0,6 °C 0,0 km/h (0 Bft)
26.01.2014 04:45 -0,7 °C 99 % 1005,1 hPa 0,2 l/m² 0,0 km/h (0 Bft) - - 0 ° 0 min 0,0 UV-I 0 W/m² -0,7 °C 0,0 km/h (0 Bft)
26.01.2014 04:40 -0,7 °C 99 % 1005,1 hPa 0,0 l/m² 0,0 km/h (0 Bft) - - 0 ° 0 min 0,0 UV-I 0 W/m² -0,7 °C 0,0 km/h (0 Bft)
26.01.2014 04:35 -0,6 °C 99 % 1005,0 hPa 0,0 l/m² 0,0 km/h (0 Bft) - - 0 ° 0 min 0,0 UV-I 0 W/m² -0,6 °C 0,0 km/h (0 Bft)
26.01.2014 04:30 -0,6 °C 99 % 1005,0 hPa 0,2 l/m² 0,0 km/h (0 Bft) - - 0 ° 0 min 0,0 UV-I 0 W/m² -0,6 °C 0,0 km/h (0 Bft)
26.01.2014 04:25 -0,6 °C 99 % 1004,8 hPa 0,0 l/m² 0,0 km/h (0 Bft) - - 0 ° 0 min 0,0 UV-I 0 W/m² -0,6 °C 0,0 km/h (0 Bft)
26.01.2014 04:20 -0,7 °C 99 % 1004,8 hPa 0,0 l/m² 0,0 km/h (0 Bft) - - 0 ° 0 min 0,0 UV-I 0 W/m² -0,7 °C 0,0 km/h (0 Bft)
26.01.2014 04:15 -0,7 °C 99 % 1004,5 hPa 0,2 l/m² 0,0 km/h (0 Bft) - - 0 ° 0 min 0,0 UV-I 0 W/m² -0,7 °C 0,0 km/h (0 Bft)
26.01.2014 04:10 -0,7 °C 99 % 1004,5 hPa 0,0 l/m² 0,0 km/h (0 Bft) - - 0 ° 0 min 0,0 UV-I 0 W/m² -0,7 °C 0,0 km/h (0 Bft)
26.01.2014 04:05 -0,7 °C 99 % 1004,4 hPa 0,0 l/m² 0,0 km/h (0 Bft) - - 0 ° 0 min 0,0 UV-I 0 W/m² -0,7 °C 0,0 km/h (0 Bft)
26.01.2014 04:00 -0,8 °C 99 % 1004,3 hPa 0,0 l/m² 0,0 km/h (0 Bft) - - 0 ° 0 min 0,0 UV-I 0 W/m² -0,8 °C 0,0 km/h (0 Bft)
26.01.2014 03:55 -0,8 °C 99 % 1004,2 hPa 0,0 l/m² 0,0 km/h (0 Bft) - - 0 ° 0 min 0,0 UV-I 0 W/m² -0,8 °C 0,0 km/h (0 Bft)
26.01.2014 03:50 -0,8 °C 99 % 1004,1 hPa 0,2 l/m² 0,0 km/h (0 Bft) - - 0 ° 0 min 0,0 UV-I 0 W/m² -0,8 °C 0,0 km/h (0 Bft)
26.01.2014 03:45 -0,9 °C 99 % 1004,0 hPa 0,0 l/m² 0,0 km/h (0 Bft) - - 0 ° 0 min 0,0 UV-I 0 W/m² -0,9 °C 0,0 km/h (0 Bft)
26.01.2014 03:40 -0,9 °C 99 % 1003,9 hPa 0,0 l/m² 0,0 km/h (0 Bft) - - 0 ° 0 min 0,0 UV-I 0 W/m² -0,9 °C 0,0 km/h (0 Bft)
26.01.2014 03:35 -0,9 °C 99 % 1003,9 hPa 0,0 l/m² 0,0 km/h (0 Bft) - - 0 ° 0 min 0,0 UV-I 0 W/m² -0,9 °C 0,0 km/h (0 Bft)
26.01.2014 03:30 -0,9 °C 99 % 1003,8 hPa 0,0 l/m² 0,0 km/h (0 Bft) - - 0 ° 0 min 0,0 UV-I 0 W/m² -0,9 °C 0,0 km/h (0 Bft)
26.01.2014 03:25 -0,9 °C 99 % 1003,6 hPa 0,0 l/m² 0,0 km/h (0 Bft) - - 0 ° 0 min 0,0 UV-I 0 W/m² -0,9 °C 0,0 km/h (0 Bft)
26.01.2014 03:20 -1,0 °C 99 % 1003,6 hPa 0,0 l/m² 0,0 km/h (0 Bft) - - 0 ° 0 min 0,0 UV-I 0 W/m² -1,0 °C 0,0 km/h (0 Bft)
26.01.2014 03:15 -1,0 °C 99 % 1003,6 hPa 0,0 l/m² 0,0 km/h (0 Bft) - - 0 ° 0 min 0,0 UV-I 0 W/m² -1,0 °C 0,0 km/h (0 Bft)
26.01.2014 03:10 -1,0 °C 99 % 1003,6 hPa 0,2 l/m² 0,0 km/h (0 Bft) - - 0 ° 0 min 0,0 UV-I 0 W/m² -1,0 °C 0,0 km/h (0 Bft)
26.01.2014 03:05 -1,0 °C 99 % 1003,6 hPa 0,0 l/m² 0,0 km/h (0 Bft) - - 0 ° 0 min 0,0 UV-I 0 W/m² -1,0 °C 0,0 km/h (0 Bft)
26.01.2014 03:00 -1,0 °C 99 % 1003,6 hPa 0,0 l/m² 0,0 km/h (0 Bft) - - 0 ° 0 min 0,0 UV-I 0 W/m² -1,0 °C 0,0 km/h (0 Bft)
26.01.2014 02:55 -1,0 °C 99 % 1003,7 hPa 0,0 l/m² 0,0 km/h (0 Bft) - - 0 ° 0 min 0,0 UV-I 0 W/m² -1,0 °C 0,0 km/h (0 Bft)
26.01.2014 02:50 -1,0 °C 99 % 1003,7 hPa 0,2 l/m² 0,0 km/h (0 Bft) - - 0 ° 0 min 0,0 UV-I 0 W/m² -1,0 °C 0,0 km/h (0 Bft)
26.01.2014 02:45 -1,0 °C 99 % 1003,7 hPa 0,0 l/m² 0,0 km/h (0 Bft) - - 0 ° 0 min 0,0 UV-I 0 W/m² -1,0 °C 0,0 km/h (0 Bft)
26.01.2014 02:40 -1,0 °C 99 % 1003,6 hPa 0,0 l/m² 0,0 km/h (0 Bft) - - 0 ° 0 min 0,0 UV-I 0 W/m² -1,0 °C 0,0 km/h (0 Bft)
26.01.2014 02:35 -1,1 °C 99 % 1003,6 hPa 0,0 l/m² 0,0 km/h (0 Bft) - - 0 ° 0 min 0,0 UV-I 0 W/m² -1,1 °C 0,0 km/h (0 Bft)
26.01.2014 02:30 -1,1 °C 99 % 1003,6 hPa 0,2 l/m² 0,0 km/h (0 Bft) - - 0 ° 0 min 0,0 UV-I 0 W/m² -1,1 °C 0,0 km/h (0 Bft)
26.01.2014 02:25 -1,1 °C 99 % 1003,7 hPa 0,0 l/m² 0,0 km/h (0 Bft) - - 0 ° 0 min 0,0 UV-I 0 W/m² -1,1 °C 0,0 km/h (0 Bft)
26.01.2014 02:20 -1,1 °C 99 % 1003,7 hPa 0,0 l/m² 0,0 km/h (0 Bft) - - 0 ° 0 min 0,0 UV-I 0 W/m² -1,1 °C 0,0 km/h (0 Bft)
26.01.2014 02:15 -1,1 °C 99 % 1003,6 hPa 0,0 l/m² 0,0 km/h (0 Bft) - - 0 ° 0 min 0,0 UV-I 0 W/m² -1,1 °C 0,0 km/h (0 Bft)
26.01.2014 02:10 -1,2 °C 99 % 1003,7 hPa 0,2 l/m² 0,0 km/h (0 Bft) - - 0 ° 0 min 0,0 UV-I 0 W/m² -1,2 °C 0,0 km/h (0 Bft)
26.01.2014 02:05 -1,2 °C 99 % 1003,7 hPa 0,0 l/m² 0,0 km/h (0 Bft) - - 0 ° 0 min 0,0 UV-I 0 W/m² -1,2 °C 0,0 km/h (0 Bft)
26.01.2014 02:00 -1,3 °C 99 % 1003,8 hPa 0,0 l/m² 0,0 km/h (0 Bft) - - 0 ° 0 min 0,0 UV-I 0 W/m² -1,3 °C 0,0 km/h (0 Bft)
26.01.2014 01:55 -1,3 °C 98 % 1003,8 hPa 0,2 l/m² 0,0 km/h (0 Bft) - - 0 ° 0 min 0,0 UV-I 0 W/m² -1,3 °C 0,0 km/h (0 Bft)
26.01.2014 01:50 -1,4 °C 98 % 1003,8 hPa 0,0 l/m² 0,0 km/h (0 Bft) - - 0 ° 0 min 0,0 UV-I 0 W/m² -1,4 °C 0,0 km/h (0 Bft)
26.01.2014 01:45 -1,4 °C 98 % 1003,8 hPa 0,0 l/m² 0,0 km/h (0 Bft) - - 0 ° 0 min 0,0 UV-I 0 W/m² -1,4 °C 0,0 km/h (0 Bft)
26.01.2014 01:40 -1,6 °C 98 % 1003,9 hPa 0,0 l/m² 0,0 km/h (0 Bft) - - 0 ° 0 min 0,0 UV-I 0 W/m² -1,6 °C 0,0 km/h (0 Bft)
26.01.2014 01:35 -1,6 °C 98 % 1003,9 hPa 0,0 l/m² 0,0 km/h (0 Bft) - - 0 ° 0 min 0,0 UV-I 0 W/m² -1,6 °C 0,0 km/h (0 Bft)
26.01.2014 01:30 -1,7 °C 98 % 1004,0 hPa 0,0 l/m² 0,0 km/h (0 Bft) - - 0 ° 0 min 0,0 UV-I 0 W/m² -1,7 °C 0,0 km/h (0 Bft)
26.01.2014 01:25 -1,8 °C 98 % 1004,0 hPa 0,0 l/m² 0,0 km/h (0 Bft) - - 0 ° 0 min 0,0 UV-I 0 W/m² -1,8 °C 0,0 km/h (0 Bft)
26.01.2014 01:20 -1,9 °C 98 % 1004,1 hPa 0,2 l/m² 0,0 km/h (0 Bft) - - 0 ° 0 min 0,0 UV-I 0 W/m² -1,9 °C 0,0 km/h (0 Bft)
26.01.2014 01:15 -2,1 °C 98 % 1004,2 hPa 0,0 l/m² 0,0 km/h (0 Bft) - - 0 ° 0 min 0,0 UV-I 0 W/m² -2,1 °C 0,0 km/h (0 Bft)
26.01.2014 01:10 -2,1 °C 98 % 1004,3 hPa 0,0 l/m² 0,0 km/h (0 Bft) - - 0 ° 0 min 0,0 UV-I 0 W/m² -2,1 °C 0,0 km/h (0 Bft)
26.01.2014 01:05 -2,2 °C 98 % 1004,4 hPa 0,2 l/m² 0,0 km/h (0 Bft) - - 0 ° 0 min 0,0 UV-I 0 W/m² -2,2 °C 0,0 km/h (0 Bft)
26.01.2014 01:00 -2,3 °C 98 % 1004,6 hPa 0,0 l/m² 0,0 km/h (0 Bft) - - 0 ° 0 min 0,0 UV-I 0 W/m² -2,3 °C 0,0 km/h (0 Bft)
26.01.2014 00:55 -2,3 °C 98 % 1004,7 hPa 0,2 l/m² 0,0 km/h (0 Bft) - - 0 ° 0 min 0,0 UV-I 0 W/m² -2,3 °C 0,0 km/h (0 Bft)
26.01.2014 00:50 -2,3 °C 98 % 1004,8 hPa 0,0 l/m² 0,0 km/h (0 Bft) - - 0 ° 0 min 0,0 UV-I 0 W/m² -2,3 °C 0,0 km/h (0 Bft)
26.01.2014 00:45 -2,3 °C 98 % 1004,8 hPa 0,2 l/m² 0,0 km/h (0 Bft) - - 0 ° 0 min 0,0 UV-I 0 W/m² -2,3 °C 0,0 km/h (0 Bft)
26.01.2014 00:40 -2,3 °C 98 % 1004,9 hPa 0,0 l/m² 0,0 km/h (0 Bft) - - 0 ° 0 min 0,0 UV-I 0 W/m² -2,3 °C 0,0 km/h (0 Bft)
26.01.2014 00:35 -2,3 °C 98 % 1004,9 hPa 0,2 l/m² 0,0 km/h (0 Bft) - - 0 ° 0 min 0,0 UV-I 0 W/m² -2,3 °C 0,0 km/h (0 Bft)
26.01.2014 00:30 -2,4 °C 98 % 1004,9 hPa 0,0 l/m² 0,0 km/h (0 Bft) - - 0 ° 0 min 0,0 UV-I 0 W/m² -2,4 °C 0,0 km/h (0 Bft)
26.01.2014 00:25 -2,4 °C 98 % 1005,1 hPa 0,2 l/m² 0,0 km/h (0 Bft) - - 0 ° 0 min 0,0 UV-I 0 W/m² -2,4 °C 0,0 km/h (0 Bft)
26.01.2014 00:20 -2,4 °C 98 % 1005,1 hPa 0,0 l/m² 0,0 km/h (0 Bft) - - 0 ° 0 min 0,0 UV-I 0 W/m² -2,4 °C 0,0 km/h (0 Bft)
26.01.2014 00:15 -2,4 °C 98 % 1005,3 hPa 0,0 l/m² 0,0 km/h (0 Bft) - - 0 ° 0 min 0,0 UV-I 0 W/m² -2,4 °C 0,0 km/h (0 Bft)
26.01.2014 00:10 -2,4 °C 98 % 1005,5 hPa 0,2 l/m² 0,0 km/h (0 Bft) - - 0 ° 0 min 0,0 UV-I 0 W/m² -2,4 °C 0,0 km/h (0 Bft)
26.01.2014 00:05 -2,4 °C 98 % 1005,6 hPa 0,0 l/m² 0,0 km/h (0 Bft) - - 0 ° 0 min 0,0 UV-I 0 W/m² -2,4 °C 0,0 km/h (0 Bft)
26.01.2014 00:00 -2,4 °C 98 % 1005,7 hPa 0,2 l/m² 0,0 km/h (0 Bft) - - 0 ° 0 min 0,0 UV-I 0 W/m² -2,4 °C 0,0 km/h (0 Bft)
25.01.2014 23:55 -2,4 °C 98 % 1005,8 hPa 0,0 l/m² 0,0 km/h (0 Bft) - - 0 ° 0 min 0,0 UV-I 0 W/m² -2,4 °C 0,0 km/h (0 Bft)
25.01.2014 23:50 -2,4 °C 98 % 1005,9 hPa 0,2 l/m² 0,0 km/h (0 Bft) - - 0 ° 0 min 0,0 UV-I 0 W/m² -2,4 °C 0,0 km/h (0 Bft)
25.01.2014 23:45 -2,4 °C 98 % 1005,9 hPa 0,0 l/m² 0,0 km/h (0 Bft) - - 0 ° 0 min 0,0 UV-I 0 W/m² -2,4 °C 0,0 km/h (0 Bft)
25.01.2014 23:40 -2,4 °C 98 % 1006,1 hPa 0,2 l/m² 0,0 km/h (0 Bft) - - 0 ° 0 min 0,0 UV-I 0 W/m² -2,4 °C 0,0 km/h (0 Bft)
25.01.2014 23:35 -2,4 °C 98 % 1006,3 hPa 0,0 l/m² 0,0 km/h (0 Bft) - - 0 ° 0 min 0,0 UV-I 0 W/m² -2,4 °C 0,0 km/h (0 Bft)
25.01.2014 23:30 -2,5 °C 98 % 1006,4 hPa 0,2 l/m² 0,0 km/h (0 Bft) - - 0 ° 0 min 0,0 UV-I 0 W/m² -2,5 °C 0,0 km/h (0 Bft)
25.01.2014 23:25 -2,5 °C 98 % 1006,1 hPa 0,0 l/m² 0,0 km/h (0 Bft) - - 0 ° 0 min 0,0 UV-I 0 W/m² -2,5 °C 0,0 km/h (0 Bft)
25.01.2014 23:20 -2,5 °C 98 % 1006,5 hPa 0,2 l/m² 0,0 km/h (0 Bft) - - 0 ° 0 min 0,0 UV-I 0 W/m² -2,5 °C 0,0 km/h (0 Bft)
25.01.2014 23:15 -2,5 °C 98 % 1006,7 hPa 0,0 l/m² 0,0 km/h (0 Bft) - - 0 ° 0 min 0,0 UV-I 0 W/m² -2,5 °C 0,0 km/h (0 Bft)
25.01.2014 23:10 -2,6 °C 98 % 1007,0 hPa 0,0 l/m² 0,0 km/h (0 Bft) - - 0 ° 0 min 0,0 UV-I 0 W/m² -2,6 °C 0,0 km/h (0 Bft)
25.01.2014 23:05 -2,6 °C 98 % 1007,2 hPa 0,2 l/m² 0,0 km/h (0 Bft) - - 0 ° 0 min 0,0 UV-I 0 W/m² -2,6 °C 0,0 km/h (0 Bft)
25.01.2014 23:00 -2,6 °C 98 % 1007,5 hPa 0,0 l/m² 0,0 km/h (0 Bft) - - 0 ° 0 min 0,0 UV-I 0 W/m² -2,6 °C 0,0 km/h (0 Bft)
25.01.2014 22:55 -2,6 °C 98 % 1007,6 hPa 0,0 l/m² 0,0 km/h (0 Bft) - - 0 ° 0 min 0,0 UV-I 0 W/m² -2,6 °C 0,0 km/h (0 Bft)
25.01.2014 22:50 -2,6 °C 98 % 1007,9 hPa 0,0 l/m² 0,0 km/h (0 Bft) - - 0 ° 0 min 0,0 UV-I 0 W/m² -2,6 °C 0,0 km/h (0 Bft)
25.01.2014 22:45 -2,6 °C 98 % 1008,2 hPa 0,2 l/m² 0,0 km/h (0 Bft) - - 0 ° 0 min 0,0 UV-I 0 W/m² -2,6 °C 0,0 km/h (0 Bft)
25.01.2014 22:40 -2,6 °C 98 % 1008,3 hPa 0,0 l/m² 0,0 km/h (0 Bft) - - 0 ° 0 min 0,0 UV-I 0 W/m² -2,6 °C 0,0 km/h (0 Bft)
25.01.2014 22:35 -2,6 °C 98 % 1008,4 hPa 0,2 l/m² 0,0 km/h (0 Bft) - - 0 ° 0 min 0,0 UV-I 0 W/m² -2,6 °C 0,0 km/h (0 Bft)
25.01.2014 22:30 -2,6 °C 98 % 1008,5 hPa 0,0 l/m² 0,0 km/h (0 Bft) - - 0 ° 0 min 0,0 UV-I 0 W/m² -2,6 °C 0,0 km/h (0 Bft)
25.01.2014 22:25 -2,6 °C 98 % 1008,7 hPa 0,2 l/m² 0,0 km/h (0 Bft) - - 0 ° 0 min 0,0 UV-I 0 W/m² -2,6 °C 0,0 km/h (0 Bft)
25.01.2014 22:20 -2,6 °C 98 % 1008,3 hPa 0,0 l/m² 0,0 km/h (0 Bft) - - 0 ° 0 min 0,0 UV-I 0 W/m² -2,6 °C 0,0 km/h (0 Bft)
25.01.2014 22:15 -2,6 °C 98 % 1008,2 hPa 0,0 l/m² 0,0 km/h (0 Bft) - - 0 ° 0 min 0,0 UV-I 0 W/m² -2,6 °C 0,0 km/h (0 Bft)
25.01.2014 22:10 -2,6 °C 98 % 1008,3 hPa 0,0 l/m² 0,0 km/h (0 Bft) - - 0 ° 0 min 0,0 UV-I 0 W/m² -2,6 °C 0,0 km/h (0 Bft)
25.01.2014 22:05 -2,6 °C 98 % 1009,1 hPa 0,0 l/m² 0,0 km/h (0 Bft) - - 0 ° 0 min 0,0 UV-I 0 W/m² -2,6 °C 0,0 km/h (0 Bft)
25.01.2014 22:00 -2,5 °C 98 % 1009,4 hPa 0,0 l/m² 0,0 km/h (0 Bft) - - 0 ° 0 min 0,0 UV-I 0 W/m² -2,5 °C 0,0 km/h (0 Bft)
25.01.2014 21:55 -2,5 °C 98 % 1009,7 hPa 0,0 l/m² 0,0 km/h (0 Bft) - - 0 ° 0 min 0,0 UV-I 0 W/m² -2,5 °C 0,0 km/h (0 Bft)
25.01.2014 21:50 -2,5 °C 98 % 1009,1 hPa 0,0 l/m² 0,0 km/h (0 Bft) - - 0 ° 0 min 0,0 UV-I 0 W/m² -2,5 °C 0,0 km/h (0 Bft)
25.01.2014 21:45 -2,6 °C 98 % 1009,1 hPa 0,0 l/m² 0,0 km/h (0 Bft) - - 0 ° 0 min 0,0 UV-I 0 W/m² -2,6 °C 0,0 km/h (0 Bft)
25.01.2014 21:40 -2,6 °C 98 % 1009,1 hPa 0,0 l/m² 0,0 km/h (0 Bft) - - 0 ° 0 min 0,0 UV-I 0 W/m² -2,6 °C 0,0 km/h (0 Bft)
25.01.2014 21:35 -2,6 °C 98 % 1009,3 hPa 0,0 l/m² 0,0 km/h (0 Bft) - - 0 ° 0 min 0,0 UV-I 0 W/m² -2,6 °C 0,0 km/h (0 Bft)
25.01.2014 21:30 -2,7 °C 98 % 1009,4 hPa 0,0 l/m² 0,0 km/h (0 Bft) - - 0 ° 0 min 0,0 UV-I 0 W/m² -2,7 °C 0,0 km/h (0 Bft)
25.01.2014 21:25 -2,7 °C 98 % 1009,5 hPa 0,0 l/m² 0,0 km/h (0 Bft) - - 0 ° 0 min 0,0 UV-I 0 W/m² -2,7 °C 0,0 km/h (0 Bft)
25.01.2014 21:20 -2,7 °C 98 % 1010,0 hPa 0,0 l/m² 0,0 km/h (0 Bft) - - 0 ° 0 min 0,0 UV-I 0 W/m² -2,7 °C 0,0 km/h (0 Bft)
25.01.2014 21:15 -2,8 °C 98 % 1010,0 hPa 0,0 l/m² 0,0 km/h (0 Bft) - - 0 ° 0 min 0,0 UV-I 0 W/m² -2,8 °C 0,0 km/h (0 Bft)
25.01.2014 21:10 -2,8 °C 98 % 1010,3 hPa 0,0 l/m² 0,0 km/h (0 Bft) - - 0 ° 0 min 0,0 UV-I 0 W/m² -2,8 °C 0,0 km/h (0 Bft)
25.01.2014 21:05 -2,8 °C 98 % 1010,4 hPa 0,0 l/m² 0,0 km/h (0 Bft) - - 0 ° 0 min 0,0 UV-I 0 W/m² -2,8 °C 0,0 km/h (0 Bft)
25.01.2014 21:00 -2,9 °C 98 % 1010,4 hPa 0,0 l/m² 0,0 km/h (0 Bft) - - 0 ° 0 min 0,0 UV-I 0 W/m² -2,9 °C 0,0 km/h (0 Bft)
25.01.2014 20:55 -2,9 °C 98 % 1010,5 hPa 0,0 l/m² 0,0 km/h (0 Bft) - - 0 ° 0 min 0,0 UV-I 0 W/m² -2,9 °C 0,0 km/h (0 Bft)
25.01.2014 20:50 -2,8 °C 98 % 1011,0 hPa 0,0 l/m² 0,0 km/h (0 Bft) - - 0 ° 0 min 0,0 UV-I 0 W/m² -2,8 °C 0,0 km/h (0 Bft)
25.01.2014 20:45 -2,8 °C 98 % 1011,4 hPa 0,0 l/m² 0,0 km/h (0 Bft) - - 0 ° 0 min 0,0 UV-I 0 W/m² -2,8 °C 0,0 km/h (0 Bft)
25.01.2014 20:40 -2,8 °C 98 % 1011,6 hPa 0,0 l/m² 0,0 km/h (0 Bft) - - 0 ° 0 min 0,0 UV-I 0 W/m² -2,8 °C 0,0 km/h (0 Bft)
25.01.2014 20:35 -2,8 °C 98 % 1011,6 hPa 0,0 l/m² 0,0 km/h (0 Bft) - - 0 ° 0 min 0,0 UV-I 0 W/m² -2,8 °C 0,0 km/h (0 Bft)
25.01.2014 20:30 -2,9 °C 98 % 1011,0 hPa 0,0 l/m² 0,0 km/h (0 Bft) - - 0 ° 0 min 0,0 UV-I 0 W/m² -2,9 °C 0,0 km/h (0 Bft)
25.01.2014 20:25 -2,9 °C 98 % 1011,7 hPa 0,0 l/m² 0,0 km/h (0 Bft) - - 0 ° 0 min 0,0 UV-I 0 W/m² -2,9 °C 0,0 km/h (0 Bft)
25.01.2014 20:20 -2,9 °C 98 % 1012,0 hPa 0,0 l/m² 0,0 km/h (0 Bft) - - 0 ° 0 min 0,0 UV-I 0 W/m² -2,9 °C 0,0 km/h (0 Bft)
25.01.2014 20:15 -2,9 °C 98 % 1012,2 hPa 0,0 l/m² 0,0 km/h (0 Bft) - - 0 ° 0 min 0,0 UV-I 0 W/m² -2,9 °C 0,0 km/h (0 Bft)
25.01.2014 20:10 -2,9 °C 98 % 1012,5 hPa 0,0 l/m² 0,0 km/h (0 Bft) - - 0 ° 0 min 0,0 UV-I 0 W/m² -2,9 °C 0,0 km/h (0 Bft)
25.01.2014 20:05 -2,9 °C 98 % 1012,8 hPa 0,0 l/m² 0,0 km/h (0 Bft) - - 0 ° 0 min 0,0 UV-I 0 W/m² -2,9 °C 0,0 km/h (0 Bft)
25.01.2014 20:00 -2,9 °C 98 % 1012,9 hPa 0,0 l/m² 0,0 km/h (0 Bft) - - 0 ° 0 min 0,0 UV-I 0 W/m² -2,9 °C 0,0 km/h (0 Bft)
_ Min-Zeit 20:10 20:00 19:00 - 20:00 - - - - - 20:00 20:00
Minimum _ -3,0 °C 98 % 1001,4 hPa - 0,0 km/h (0 Bft) - - - - - -2,9 °C 0,0 km/h (0 Bft)
_ Max-Zeit 10:55 02:00 20:00 22:25 20:00 - - 20:00 20:00 13:55 10:45 20:00
Maximum _ 0,1 °C 99 % 1012,9 hPa 0,2 l/m² 0,0 km/h
- - (0 Bft)
- - 0 min 0,0 UV-I 26 W/m² 0,0 °C 0,0 km/h
- - (0 Bft)
Durchschnitt _ -1,3 °C 99 % 1007,3 hPa #8,4 l/m² 0,0 km/h (0 Bft) N - #0 min. 0,0 UV-I 10 W/m² -1,3 °C 0,0 km/h (0 Bft)